Change the Weather History Date:

Tuesday, December 2, 2014

  Actual Average Record
Temperature  
Mean Temperature 40 °F -  
Max Temperature 45 °F 39 °F 53 °F (1963)
Min Temperature 36 °F 31 °F 1 °F (1970)
Degree Days  
Heating Degree Days 24    
Moisture  
Dew Point 41 °F    
Average Humidity 96    
Maximum Humidity 100    
Minimum Humidity 89    
Precipitation  
Precipitation 1.15 in - - ()
Sea Level Pressure  
Sea Level Pressure 29.97 in    
Wind  
Wind Speed 8 mph (SSE)    
Max Wind Speed 21 mph    
Max Gust Speed 23 mph    
Visibility 7 miles    
Events Rain    
Averages and records for this station are not official NWS values.
T = Trace of Precipitation, MM = Missing Value Source: NWS Daily Summary

Daily Weather History Graph

Daily Weather History Graph

Search for Another Location

Airport or City:

Trip Planner

Search our weather history database for the weather conditions in past years. The results will help you decide how hot, cold, wet, or windy it might be!

Date:

Astronomy

Dec. 02, 2014 Rise Set
Actual Time 8:16 AM AKST 3:24 PM AKST
Civil Twilight 7:29 AM AKST 4:12 PM AKST
Nautical Twilight 6:39 AM AKST 5:01 PM AKST
Astronomical Twilight 5:53 AM AKST 5:48 PM AKST
Moon 1:55 PM AKST (12/2) 3:18 AM AKST (12/2)
Length of Visible Light 8h 42m
Length of Day
7h 07m
Waxing Gibbous, 85% of the Moon is Illuminated
Dec 2
Waxing Gibbous
Dec 6
Full
Dec 14
Last Quarter
Dec 21
New
Dec 28
First Quarter

Hourly Weather History & Observations

Time (AKST) Temp. Windchill Dew Point Humidity Pressure Visibility Wind Dir Wind Speed Gust Speed Precip Events Conditions
12:41 AM 36.0 °F 30.3 °F 36.0 °F 100% 30.01 in 5.0 mi East 6.9 mph - 0.05 in Rain Light Rain
12:53 AM 36.0 °F 29.6 °F 36.0 °F 100% 30.01 in 9.0 mi East 8.1 mph - 0.06 in Rain Light Rain
1:10 AM 36.0 °F 30.3 °F 36.0 °F 100% 30.01 in 6.0 mi East 6.9 mph - 0.01 in Rain Light Rain
1:53 AM 37.0 °F 33.3 °F 36.0 °F 96% 30.00 in 10.0 mi East 4.6 mph - 0.03 in Rain Light Rain
2:16 AM 37.0 °F 32.4 °F 36.0 °F 96% 30.00 in 10.0 mi East 5.8 mph - 0.01 in Rain Light Rain
2:36 AM 36.0 °F 29.6 °F 36.0 °F 100% 29.99 in 9.0 mi East 8.1 mph - 0.01 in Rain Light Rain
2:53 AM 37.0 °F 31.6 °F 37.0 °F 100% 29.99 in 10.0 mi East 6.9 mph - 0.02 in Rain Light Rain
3:29 AM 39.0 °F - 39.0 °F 100% 29.99 in 5.0 mi Calm Calm - 0.03 in Rain Light Rain
3:35 AM 39.0 °F 35.7 °F 39.0 °F 100% 29.99 in 9.0 mi East 4.6 mph - 0.03 in Rain Light Rain
3:46 AM 41.0 °F - 39.9 °F 96% 29.99 in 8.0 mi North - - 0.04 in Rain Light Rain
3:53 AM 43.0 °F 36.8 °F 39.9 °F 89% 29.99 in 7.0 mi WSW 11.5 mph - 0.04 in   Overcast
4:24 AM 43.0 °F 38.8 °F 39.9 °F 89% 29.99 in 9.0 mi West 6.9 mph - 0.02 in Rain Light Rain
4:53 AM 42.1 °F 35.7 °F 39.0 °F 89% 29.99 in 8.0 mi WSW 11.5 mph - 0.04 in Rain Light Rain
5:53 AM 43.0 °F 35.7 °F 39.9 °F 89% 29.98 in 9.0 mi SW 15.0 mph - 0.05 in Rain Light Rain
6:53 AM 42.1 °F 34.9 °F 39.9 °F 92% 29.99 in 7.0 mi SSW 13.8 mph - 0.05 in Rain Light Rain
7:53 AM 41.0 °F 35.8 °F 39.0 °F 93% 29.99 in 8.0 mi East 8.1 mph - 0.06 in Rain Light Rain
8:53 AM 39.0 °F 32.3 °F 37.9 °F 96% 29.99 in 6.0 mi East 10.4 mph - 0.10 in Rain Light Rain
9:30 AM 41.0 °F 38.0 °F 39.9 °F 96% 29.99 in 8.0 mi SE 4.6 mph - 0.07 in Rain Light Rain
9:53 AM 39.9 °F 35.1 °F 39.0 °F 97% 29.99 in 8.0 mi East 6.9 mph - 0.09 in Rain Light Rain
10:27 AM 39.9 °F 36.7 °F 39.0 °F 97% 29.99 in 6.0 mi ESE 4.6 mph - 0.02 in Rain Light Rain
10:53 AM 41.0 °F 37.1 °F 39.9 °F 96% 29.99 in 8.0 mi Variable 5.8 mph - 0.04 in Rain Light Rain
11:06 AM 42.1 °F 34.2 °F 41.0 °F 96% 29.99 in 6.0 mi SSW 16.1 mph 23.0 mph 0.00 in Rain Light Rain
11:25 AM 44.1 °F 35.7 °F 41.0 °F 89% 29.99 in 6.0 mi SW 20.7 mph - 0.02 in Rain Light Rain
11:53 AM 44.1 °F 37.1 °F 42.1 °F 93% 29.99 in 10.0 mi SSW 15.0 mph - 0.02 in Rain Light Rain
12:53 PM 44.1 °F 37.7 °F 42.1 °F 93% 29.98 in 6.0 mi SSW 12.7 mph - 0.04 in Rain Light Rain
1:53 PM 45.0 °F 38.9 °F 43.0 °F 93% 29.98 in 10.0 mi SW 12.7 mph - 0.01 in Rain Light Rain
2:53 PM 44.1 °F 38.1 °F 43.0 °F 96% 29.96 in 5.0 mi SSW 11.5 mph 19.6 mph 0.02 in Rain Light Rain
3:05 PM 44.1 °F 37.4 °F 43.0 °F 96% 29.96 in 5.0 mi South 13.8 mph 21.9 mph 0.00 in Rain Light Rain
3:13 PM 44.1 °F 38.6 °F 43.0 °F 96% 29.96 in 7.0 mi South 10.4 mph - 0.01 in Rain Light Rain
3:21 PM 44.1 °F 40.8 °F 43.0 °F 96% 29.96 in 8.0 mi SSW 5.8 mph - 0.01 in Rain Light Rain
3:53 PM 44.1 °F 38.1 °F 44.1 °F 100% 29.96 in 5.0 mi SSW 11.5 mph 17.3 mph 0.02 in Rain Light Rain
4:01 PM 44.1 °F 39.5 °F 43.0 °F 96% 29.96 in 8.0 mi South 8.1 mph 17.3 mph 0.00 in Rain Light Rain
4:38 PM 42.1 °F 37.1 °F 41.0 °F 96% 29.95 in 10.0 mi East 8.1 mph - 0.01 in   Overcast
4:53 PM 42.1 °F 36.1 °F 42.1 °F 100% 29.95 in 4.0 mi ESE 10.4 mph - 0.03 in Rain Light Rain
5:53 PM 41.0 °F 35.8 °F 41.0 °F 100% 29.95 in 3.0 mi South 8.1 mph - 0.06 in Rain Light Rain
6:00 PM 41.0 °F 37.1 °F 41.0 °F 100% 29.94 in 3.0 mi SE 5.8 mph - 0.02 in Rain Light Rain
6:53 PM 42.1 °F 36.6 °F 42.1 °F 100% 29.94 in 3.0 mi SSE 9.2 mph - 0.10 in Rain Light Rain
7:10 PM 43.0 °F 36.8 °F 43.0 °F 100% 29.93 in 3.0 mi SSW 11.5 mph - 0.02 in Rain Light Rain
7:17 PM 44.1 °F 38.6 °F 44.1 °F 100% 29.93 in 3.0 mi South 10.4 mph - 0.02 in   Overcast
7:53 PM 44.1 °F 38.6 °F 44.1 °F 100% 29.93 in 3.0 mi South 10.4 mph 20.7 mph 0.07 in Rain Rain
8:10 PM 44.1 °F 38.1 °F 44.1 °F 100% 29.93 in 3.0 mi South 11.5 mph - 0.05 in Rain Rain
8:53 PM 44.1 °F 38.6 °F 44.1 °F 100% 29.93 in 3.0 mi West 10.4 mph - 0.17 in Rain Rain
9:12 PM 44.1 °F 40.8 °F 44.1 °F 100% 29.93 in 10.0 mi WNW 5.8 mph - 0.03 in Rain Light Rain
9:42 PM 43.0 °F 35.1 °F 41.0 °F 93% 29.93 in 9.0 mi NW 17.3 mph 20.7 mph 0.03 in Rain Light Rain
9:53 PM 43.0 °F 36.4 °F 42.1 °F 97% 29.93 in 8.0 mi NW 12.7 mph - 0.03 in   Overcast
10:26 PM 42.1 °F 40.2 °F 39.9 °F 92% 29.93 in 10.0 mi North 3.5 mph - 0.00 in   Overcast
10:53 PM 42.1 °F - 39.9 °F 92% 29.94 in 10.0 mi Calm Calm - 0.00 in   Overcast
11:53 PM 39.9 °F 36.7 °F 39.9 °F 100% 29.95 in 10.0 mi East 4.6 mph - N/A   Overcast